TimeEST,TemperatureF,Dew PointF,Humidity,Sea Level PressureIn,VisibilityMPH,Wind Direction,Wind SpeedMPH,Gust SpeedMPH,PrecipitationIn,Events,Conditions,WindDirDegrees,DateUTC
12:53 AM,43.0,37.0,80,30.33,10.0,South,8.1,-,N/A,,Overcast,170,2013-11-05 05:53:00
1:53 AM,41.0,36.0,82,30.33,10.0,South,3.5,-,N/A,,Mostly Cloudy,170,2013-11-05 06:53:00
2:53 AM,41.0,36.0,82,30.34,10.0,Calm,Calm,-,N/A,,Mostly Cloudy,0,2013-11-05 07:53:00
3:53 AM,41.0,37.0,86,30.34,10.0,SSE,4.6,-,N/A,,Mostly Cloudy,160,2013-11-05 08:53:00
4:53 AM,43.0,39.0,86,30.35,10.0,SSE,6.9,-,N/A,,Mostly Cloudy,160,2013-11-05 09:53:00
5:53 AM,45.0,39.9,82,30.35,10.0,South,4.6,-,N/A,,Overcast,180,2013-11-05 10:53:00
6:53 AM,45.0,39.9,82,30.36,10.0,South,4.6,-,N/A,,Overcast,190,2013-11-05 11:53:00
7:53 AM,46.9,39.9,77,30.37,10.0,South,6.9,-,N/A,,Overcast,180,2013-11-05 12:53:00
8:53 AM,48.0,39.9,74,30.38,10.0,South,8.1,-,N/A,,Overcast,180,2013-11-05 13:53:00
9:53 AM,50.0,41.0,71,30.37,10.0,South,8.1,-,N/A,,Overcast,180,2013-11-05 14:53:00
10:53 AM,51.1,42.1,71,30.38,10.0,South,10.4,-,N/A,,Overcast,190,2013-11-05 15:53:00
11:53 AM,53.1,42.1,66,30.37,10.0,South,10.4,-,N/A,,Overcast,190,2013-11-05 16:53:00
12:53 PM,54.0,43.0,66,30.35,10.0,South,9.2,-,N/A,,Overcast,180,2013-11-05 17:53:00
1:53 PM,54.0,44.1,69,30.32,10.0,South,6.9,-,N/A,,Overcast,170,2013-11-05 18:53:00
2:53 PM,54.0,45.0,72,30.33,10.0,South,9.2,-,N/A,,Overcast,180,2013-11-05 19:53:00
3:53 PM,54.0,45.0,72,30.32,10.0,SSE,5.8,-,N/A,,Overcast,160,2013-11-05 20:53:00
4:53 PM,53.1,46.0,77,30.31,10.0,SSE,5.8,-,N/A,,Overcast,150,2013-11-05 21:53:00
5:53 PM,53.1,46.9,80,30.30,10.0,SSE,5.8,-,N/A,,Overcast,150,2013-11-05 22:53:00
6:53 PM,51.1,46.0,83,30.30,10.0,SSE,6.9,-,N/A,,Mostly Cloudy,150,2013-11-05 23:53:00
7:53 PM,51.1,46.9,86,30.28,10.0,SE,5.8,-,N/A,,Mostly Cloudy,130,2013-11-06 00:53:00
8:53 PM,51.1,46.0,83,30.27,10.0,SE,6.9,-,N/A,,Mostly Cloudy,140,2013-11-06 01:53:00
9:53 PM,52.0,45.0,77,30.26,10.0,SSE,10.4,-,N/A,,Overcast,150,2013-11-06 02:53:00
10:53 PM,52.0,44.1,74,30.22,10.0,SSE,9.2,-,N/A,,Overcast,150,2013-11-06 03:53:00
11:53 PM,51.1,43.0,74,30.20,10.0,SSE,8.1,-,N/A,,Scattered Clouds,150,2013-11-06 04:53:00